Вернуться в каталог

STARLINK-3795

АктивенСвязьVLEO
NORAD 52264·PAYLOAD·🇺🇸 United States

Запущен Apr 21, 2022 с Cape Canaveral Space Force Station

Loading…

Ближайшие Пролёты (ближайшие 24 часа)

TLE

СвежийSource: CelesTrak SupGP

Эпоха: Sep 15, 2026, 02:01 UTC

1 52264C 22041D   26258.08451389  .00044665  00000+0  13198-2 0  2585
2 52264  53.1587 323.2871 0001153  93.1762  10.3263 15.34365561    19

Отслеживайте STARLINK-3795 в реальном времени с AllMySat

Download on the App Store